Other Public Products
Issued by NWS Charleston, SC

Current Version | Previous Version | Graphics & Text | Print | Product List | Glossary On
Versions: 1 2 3 4 5 6 7 8 9 10 11 12 13 14 15 16 17 18 19 20 21 22 23 24 25 26 27 28 29 30 31 32 33 34 35 36 37 38 39 40 41 42 43 44 45 46 47 48 49 50
000
FPUS82 KCHS 170912
OPUCHS

TEST...KCHS/KSAV Gateway Observations...TEST
National Weather Service Charleston SC
400 AM EST WED JAN 17 2018

NOTE: "fair" indicates few or no clouds below 12,000 feet with no
significant weather and/or obstructions to visibility.

SCZ050-WAZ558-NCZ071-TXZ119-213-PAZ071-DCZ001-FLZ074-172-MI076-
NYZ176-178-MAZ016-IL014-TNZ027-NJZ106-GAZ044-MD014-171000-

...Gateway Observations for Charleston International...

CITY           SKY/WX    TMP DP  RH WIND       PRES   REMARKS
Chas Airport   FAIR      35  33  92 NE3       30.26S
Seattle        CLOUDY    46  37  71 E7        30.10F
Charlotte      LGT RAIN  40  31  70 CALM      30.23F
Dallas DFW     PTCLDY    17   4  56 N7        30.73S WCI   8
Dallas Love    CLOUDY    17   3  54 N3        30.76S
Philladelphia  LGT SNOW  34  32  92 NW10      30.28F FOG     WCI  26
Wash National  LGT SNOW  32  29  88 NW13      30.34S FOG     WCI  22
Baltimore      LGT SNOW  31  31 100 NW8       30.31S VSB 3/4 WCI  23
Miami          MOCLDY    63  55  75 NW5       30.18R
Detroit        FLURRIES   6   3  87 S6        30.47S WCI  -4
Newark         LGT RAIN  35  31  85 NE7       30.26F WCI  29
Laguardia      LGT RAIN  35  32  88 NE9       30.26F WCI  28
J F K          LGT RAIN  35  35 100 N7        30.27F WCI  29
Boston Logan   CLOUDY    32  27  81 SE6       30.35F WCI  26
Ft. Lauderdale CLOUDY    59  57  93 NW10      30.17R
Chicago O`Hare FAIR       9   4  80 W10       30.53R WCI  -5
Chicago Midway FAIR      11   6  81 W6        30.54R WCI   1
Houston Bush   CLEAR     22  11  62 N9        30.70F WCI  12
Houston Hobby  FAIR      22  14  71 N12       30.70S WCI  10
Nashville      CLOUDY     8   1  73 N10       30.61S WCI  -6
Atlanta        LGT SNOW  21  19  92 NW14      30.35R VSB 1   WCI   8

$$

GAZ044-118-TXZ119-213-NCZ071-DCZ001-MDZ014-506-PAZ021-071-NJZ106-
NYZ176-178-MAZ106-OHZ011-021-055-MIZ076-KYZ091-ILZ014-INZ047-
MNZ060-ONZ431-171000-

...Gateway Observations for Savannah International...

CITY           SKY/WX    TMP DP  RH WIND       PRES   REMARKS
Savannah Arpt  FAIR      34  33  96 CALM      30.25F
Atlanta        LGT SNOW  21  19  92 NW14      30.35R VSB 1   WCI   8
Charlotte      LGT RAIN  40  31  70 CALM      30.23F
Dallas DFW     PTCLDY    17   4  56 N7        30.73S WCI   8
Houston Bush   CLEAR     22  11  62 N9        30.70F WCI  12
Wash National  LGT SNOW  32  29  88 NW13      30.34S FOG     WCI  22
Wash Dulles    CLOUDY    28  24  85 N15G22    30.34S WCI  16
Baltimore      LGT SNOW  31  31 100 NW8       30.31S VSB 3/4 WCI  23
Philadelphia   LGT SNOW  34  32  92 NW10      30.28F FOG     WCI  26
Newark         LGT RAIN  35  31  85 NE7       30.26F WCI  29
Laguardia      LGT RAIN  35  32  88 NE9       30.26F WCI  28
J F K          LGT RAIN  35  35 100 N7        30.27F WCI  29
Boston         CLOUDY    32  27  81 SE6       30.35F WCI  26
Pittsburg      FLURRIES   2  -1  88 W6        30.44S WCI  -9
Akron          FLURRIES   2  -3  80 SW6       30.44S WCI  -9
Cleveland      FLURRIES   4  -1  80 SW8       30.50S WCI  -9
Cincinnati     LGT SNOW   7   4  87 SW3       30.53S FOG
Columbus       FLURRIES   6   2  83 NW3       30.53S
Detroit        FLURRIES   6   3  87 S6        30.47S WCI  -4
Chicago O`Hare FAIR       9   4  80 W10       30.53R WCI  -5
Minneapolis    FAIR      -1  -5  82 SW3       30.46F
Indianapolis   FLURRIES   5   2  87 W8        30.55R WCI  -8
Toronto Canada FLURRIES  14   9  79 W10       30.35F WCI   1

$$




USA.gov is the U.S. government's official web portal to all federal, state and local government web resources and services.